カタログに戻る

STARLINK-11645

運用中通信VLEO
NORAD 63316·PAYLOAD·🇺🇸 United States

打ち上げ Mar 18, 2025 から Cape Canaveral Space Force Station

Loading…

次のパス (今後24時間)

TLE

最新Source: CelesTrak SupGP

元期: Sep 14, 2026, 22:47 UTC

1 63316C 25057K   26257.94979167  .00033046  00000+0  25654-3 0  2579
2 63316  43.0008 203.9977 0001610 257.7628 343.7018 15.70834322    10

AllMySatでSTARLINK-11645をリアルタイム追跡

Download on the App Store